2022-145B (54224 NORAD) Tracking and Keplerian Element Data

This shows tracking and keplerian element data for the satellite.

Feedback or suggestion? Click here.




ElementValue
Catalog54224
Name2022-145B
Epoch Orbit36
Epoch Day324.64926663
Epoch Year2022
RAAN91.2662
Inclination63.8645
Eccentricity0.697929
Argument of Perigee270.0302
Mean Anonmoly15.6022
Mean Motion2.02012961
Decay Rate5.48E-06
L11 54224U 22145B 22324.64926663 .00000548 00000+0 00000+0 0 9991
L22 54224 63.8645 91.2662 6979290 270.0302 15.6022 2.02012961 361



Live tracking and technical data element details for 2022-145B (NORAD 54224). 2022-145B can be tracked NOW for your location showing map with azimuth and elevation plus other details from your city location.







IsCatalogInMostPopularTable: catalog: 54224, numindb: 11
Update: records affected: 1



GetName: 54224 2022-145B

Hit Count: updated at: Sun, 04 Dec 2022 22:49:18 GMT